Flag for Germany Weather past 2 weeks in Apolda, Thuringia, Germany

Now
48 °F

Passing clouds.


Feels Like: 48 °F
Forecast: 46 / 73 °F
Wind: 2 mph from Southwest

Location: Erfurt-Bindersleben


UV Index: 3 (Moderate)

Visibility: 9 mi


Pressure: 30.15 "Hg

Humidity: 90%

Dew point: 45 °F

Location of ApoldaLocation

Historic Weather in Apolda

°F

Apolda temperature yesterday

Maximum temperature yesterday: 66 °F (at 5:00 PM)
Minimum temperature yesterday: 40 °F (at 6:00 AM)
Average temperature yesterday: 54 °F

Past Weeks' High & Low Weather Summary

 TemperatureHumidityPressure
High66 °F (Apr 23, 5:00 PM)100% (Apr 19, 11:00 AM)30.47 "Hg (Apr 19, 11:00 AM)
Low31 °F (Apr 17, 3:00 AM)33% (Apr 17, 5:00 PM)29.65 "Hg (Apr 21, 3:00 PM)
Average48 °F77%30.04 "Hg
* Reported Apr 9 2:00 AM — Apr 24 2:00 AM, Apolda, Weather by CustomWeather, © 2014

Note: Actual official high and low records may vary slightly from our data, if they occured in-between our weather recording intervals... More about our weather records

Advertising

Historic Weather Conditions — Data for Previous 24 hours

 ConditionsComfort  
Time TempWeatherWind HumidityBarometerVisibility
2:00 AM
Apr 24
51 °FPassing clouds.2 mph84%30.14 "Hg11 mi
1:00 AM53 °FPassing clouds.2 mph81%30.15 "Hg12 mi
12:00 AM56 °FPassing clouds.1 mph72%30.13 "Hg12 mi
11:00 PM
Apr 23
58 °FPassing clouds.1 mph70%30.13 "Hg16 mi
10:00 PM57 °FPassing clouds.2 mph73%30.13 "Hg16 mi
9:00 PM59 °FPassing clouds.1 mph73%30.11 "Hg16 mi
8:00 PM61 °FPassing clouds.2 mph70%30.09 "Hg16 mi
7:00 PM63 °FPassing clouds.3 mph64%30.07 "Hg19 mi
6:00 PM65 °FScattered clouds.5 mph59%30.07 "Hg25 mi
5:00 PM66 °FScattered clouds.2 mph49%30.07 "Hg25 mi
4:00 PM65 °FPartly sunny.2 mph48%30.09 "Hg25 mi
3:00 PM65 °FPartly sunny.2 mph50%30.10 "Hg19 mi
2:00 PM64 °FPartly sunny.1 mph52%30.10 "Hg19 mi
1:00 PM63 °FScattered clouds.2 mph58%30.11 "Hg22 mi
12:00 PM62 °FScattered clouds.1 mph65%30.12 "Hg22 mi
11:00 AM59 °FScattered clouds.1 mph72%30.13 "Hg22 mi
10:00 AM55 °FScattered clouds.1 mph74%30.13 "Hg22 mi
9:00 AM50 °FScattered clouds.3 mph86%30.12 "Hg19 mi
8:00 AM46 °FPassing clouds.3 mph96%30.12 "Hg19 mi
7:00 AM41 °FPassing clouds.3 mph96%30.13 "Hg25 mi
6:00 AM40 °FPassing clouds.3 mph95%30.11 "Hg16 mi
5:00 AM42 °FClear.3 mph95%30.10 "Hg19 mi
4:00 AM42 °FClear.3 mph95%30.09 "Hg19 mi
3:00 AM42 °FClear.3 mph95%30.07 "Hg19 mi
Weather by CustomWeather, © 2014

See weather overview